Content
SEND FEEDBACK

Canada Flag

QUEBEC CITY, QUEBEC


Home > North America > Canada > Quebec
Elevation: 72 meters     Latitude: 46 48N     Longitude: 071 23W

WEATHER
 
SELECT A DAY
Number of Records: 215,370;   Date Range: 6/30/96 - 3/22/16
 
SHARE

PRINT THIS DATA

[ ← Previous Day ]
WEATHER ALMANAC - 6 JANUARY, 2013
[ Next Day → ]
[ °F ]   °C
Weather ElementAverageHighLow
Temperature-11.6 °C-7.8 °C (4:00 pm) (1:00 am)
Dewpoint-15.4 °C-8.9 °C (4:00 pm)-23 °C (1:00 am)
Humidity78.6 %93 % (5:00 pm)61 % (1:00 am)
Wind Speed10.5 km/h33.3 km/h (9:00 pm)
Wind Gust38.9 km/h (10:00 pm)
Weather ElementAverage
Visibility6.9 km
Wind DirectionESE (105.3 °)

Weather ElementTotal
Precipitation---
Heating Degree Days31.1 (Base 18.3)
Averaged from 42 records on 6 January, 2013
WEATHER CONDITIONS BREAKOUT
WIND DIRECTION BREAKOUT
WEATHER BY HOUR - 6 JANUARY, 2013
[ °F ]   °C
Local TimeTemperatureDewpointHumidityBarometerVisibilityWind DirectionWind SpeedGust SpeedPrecipitationEventsConditions
1:00 AM-17.8 °C-20.6 °C70 %1022 hPaNorth3.7 km/h
1:00 AM-17 °C-23 °C61 %1022 hPa24.1 kmNNE (20°)11.1 km/hMostly Cloudy
2:00 AM-17 °C-22 °C66 %1021.7 hPa24.1 kmNE (40°)5.6 km/hMostly Cloudy
3:00 AM-17 °C-22 °C66 %1021.3 hPa24.1 kmNNE (20°)3.7 km/hScattered Clouds
4:00 AM-17 °C-22 °C66 %1019.6 hPa24.1 kmNorth (10°)9.3 km/hMostly Cloudy
4:00 AM-16.7 °C-20 °C66 %1019.6 hPaNorth (350°)3.7 km/h
5:00 AM-16 °C-21 °C66 %1019 hPa24.1 kmNNE (20°)11.1 km/hOvercast
6:00 AM-15 °C-20 °C66 %1018.3 hPa4.8 kmNorth (10°)7.4 km/hSnowLight Snow
6:15 AM-15 °C-17.8 °C1.6 kmNE (40°)5.6 km/hSnowLight Snow
6:50 AM-17.8 °C-17.8 °C3.2 kmNNE (20°)9.3 km/h
7:00 AM-15 °C-18 °C78 %1017.9 hPa2.4 kmNNE (20°)5.6 km/hSnowLight Snow
7:00 AM-15 °C-16.7 °C80 %1017.9 hPaNNE (20°)3.7 km/h
8:00 AM-15 °C-18 °C78 %1017.9 hPa2.4 kmCalmSnowLight Snow
8:18 AM-14 °C-17.8 °C4 kmNNE (20°)3.7 km/hSnowLight Snow
9:00 AM-13 °C-17 °C73 %1017.3 hPa2.4 kmNE (40°)7.4 km/hSnowLight Snow
10:00 AM-12 °C-15 °C79 %1016.6 hPa2.4 kmNE (50°)5.6 km/hSnowLight Snow
10:00 AM-11.7 °C-13.3 °C80 %1016.6 hPaENE (70°)3.7 km/h
10:21 AM-12 °C-17.8 °C3.2 kmNE (40°)5.6 km/hSnowLight Snow
10:32 AM-12 °C-17.8 °C8 kmNE (40°)3.7 km/hSnowLight Snow
11:00 AM-11 °C-14 °C79 %1015.9 hPa12.9 kmCalmSnowLight Snow
11:31 AM-11 °C-17.8 °C2.4 kmNorth (360°)5.6 km/hSnowLight Snow
12:00 PM-10 °C-12 °C86 %1014.2 hPa8 kmNorth (10°)5.6 km/hSnowLight Snow
12:44 PM-9 °C-17.8 °C3.2 kmNNE (20°)7.4 km/hSnowLight Snow
1:00 PM-8.9 °C-11.1 °C79 %1013.5 hPaNE (50°)5.6 km/h
1:00 PM-9 °C-11 °C86 %1013.5 hPa2.4 kmNNE (20°)7.4 km/hSnowLight Snow
1:48 PM-9 °C-17.8 °C0 km4.6 (2013°)0 mmLight Snow80
2:00 PM-9 °C-11 °C86 %1013.5 hPa1.6 kmEast (80°)5.6 km/hSnowLight Snow
3:00 PM-8 °C-10 °C86 %1013.9 hPa1.6 kmENE (60°)11.1 km/hSnowLight Snow
4:00 PM-7.8 °C-8.9 °C89 %1014.2 hPaEast (80°)9.3 km/h
4:00 PM-8 °C-10 °C86 %1014.6 hPa1.6 kmENE (70°)11.1 km/hSnowLight Snow
5:00 PM-8 °C-9 °C93 %1014.9 hPa1.9 kmENE (60°)20.4 km/hSnowLight Snow
5:30 PM-8 °C-17.8 °C2.4 kmENE (60°)16.7 km/hSnowLight Snow
5:50 PM-8 °C-17.8 °C1.6 kmENE (60°)14.8 km/hSnowLight Snow
6:00 PM-8 °C-9 °C93 %1015.6 hPa1.6 kmENE (60°)20.4 km/hSnowLight Snow
6:37 PM-8 °C-17.8 °C3.2 kmENE (70°)18.5 km/h29.6 km/hSnowLight Snow
7:00 PM-7.8 °C-9.4 °C84 %1015.6 hPaEast (80°)16.7 km/h
7:00 PM-8 °C-10 °C86 %1015.9 hPa4.8 kmENE (70°)24.1 km/hSnowLight Snow
8:00 PM-8 °C-11 °C79 %1016.6 hPa8 kmENE (70°)29.6 km/hSnowLight Snow
9:00 PM-9 °C-12 °C79 %1017.3 hPa8 kmENE (70°)33.3 km/hSnowLight Snow
10:00 PM-9.4 °C-11.7 °C79 %1017.6 hPaEast (80°)16.7 km/h
10:00 PM-10 °C-12 °C86 %1017.9 hPa8 kmENE (70°)22.2 km/h38.9 km/hSnowLight Snow
11:00 PM-10 °C-12 °C86 %1018.6 hPa4.8 kmEast (80°)18.5 km/h31.5 km/hSnowLight Snow
Hourly data recorded from CYQB, located 0 kilometers away from Quebec City, Quebec




STORIES FROM OUR PARTNERS